SL-16 DEB, 29098

Orbit data source: Space-Track

SL-16 DEB, 29098 is space debris in LEO originally from a launch on Fri, 26 Mar 1993 UTC launched from the Tyuratam Missile And Space Complex (TTMTR). Debris objects in space refer to the collection of defunct objects orbiting the Earth. Examples of debris include non-operational satellites, rocket bodies, and fragments generated from explosions, collisions, or faulty payload assembly.

Loading next visibility...
SL-16 DEB details
Identifier
29098, 1993-016AM
Orbit
LEO
Last TLE update2 days ago
Origin
Flag of CISRVSN RF (CIS)
ManufacturerUnknown
MissionSpacecraft
Bus & MotorUnknown
MassUnknown
Launch date (UTC)
1993-03-26 (32 years ago)
Launch vehicleUnknown
Launch site
Tyuratam Missile And Space Complex (TTMTR)
Object type
Payload
Rocket body
Debris
Shape & HBRUnknown
Radar Cross SectionSmall (<0.1 m²)

Expand to show TLE details & history

TLE from 2 days ago
0 SL-16 DEB
1 29098U 93016AM  24360.00176104  .00002437  00000-0  12162-2 0  9991
2 29098  70.9244 226.5830 0086029 292.6637 132.4711 14.15948384594411
Epoch: 2024-12-25T00:02Z
Definitive object data (Epoch: 2024-12-25T00:02:32.153Z)
Latitude59.6978°
Longitude168.00621°
Altitude890.899 km
Speed7.391 km/s
True Right ascension17h 30m 34s
True Declination59° 33' 02"
Sunlit
Object was in daylight at TLE epoch
Visualization TLE readout
Latitude-40.99499°
Longitude-33.85524°
Altitude829.193 km
Speed7.45 km/s
Apparent Right ascension02h 01m 54s
Apparent Declination-45° 03' 45"
Sunlit
Object is in daylight
Visualization observer readout
Local Sidereal Time11:45:23
Azimuth247.056° WSW
Elevation-64.512°
Doppler factor1
Orbital elements
Apogee altitude899.09 km
Perigee altitude774.948 km
Semi-major axis7,215.156 km
Eccentricity0.0086029
Inclination70.9244°
RAAN226.583°
Arg. of periapsis292.6637°
True anomaly133.193°
Mean anomaly132.4711°
Eccentric anomaly132.83257°
Mean motion3.5414 °/min
BSTAR0.0012162
Orbital period101.65 mins
Loading maneuver chart data...
Loading historical data...
Loading historical data...
Loading historical data...
Loading historical data...
Loading historical data...
Loading historical data...
Loading historical data...

SL-16 DEB Visibility forecast

Observer location: undefined°, undefined

Span
Click to sort rows by Start time (UTC) header in descending order
Start Az.
Max El. time (UTC)
Max El. Az.
Max El.
End time (UTC)
End Az.
10 mins2024-12-26 16:32:53.546Z202.01° SSW2024-12-26 16:37:53.546Z19.285° NNE44.288°2024-12-26 16:42:53.546Z23.101° NE
4 mins2024-12-26 18:20:53.546Z295.637° NW2024-12-26 18:21:53.546Z307.164° NW14.527°2024-12-26 18:24:53.546Z340.466° N
9 mins2024-12-27 01:27:53.546Z357.434° N2024-12-27 01:31:53.546Z56.106° ENE32.851°2024-12-27 01:36:53.546Z126.129° SE
8 mins2024-12-27 03:11:53.546Z309.444° NW2024-12-27 03:15:53.546Z256.604° W26.635°2024-12-27 03:19:53.546Z204.117° SW
|